Location: Santa Maria di Sala
(45.5070°N, 12.0300°E)
Time: 07:05:16
(UTC+02:00)

STRAND 1 - Pass Details

Date: 01 March 2024
Orbit: 764 x 779 km, 98.4° (Epoch: 16 April)

Event Time Altitude Azimuth Distance (km) Brightness Sun altitude
Rises 06:01:28 0° 174° (S) 3,248 ? -9.2°
Reaches altitude 10° 06:03:48 10° 178° (S) 2,325 ? -8.8°
Maximum altitude 06:08:53 62° 259° (WSW) 880 ? -7.9°
Drops below altitude 10° 06:14:00 10° 340° (NNW) 2,341 ? -7.0°
Sets 06:16:21 0° 344° (NNW) 3,272 ? -6.6°
